Caribou, ME

1:10 AM EDT on March 24, 2017 (GMT -0400)
Caribou Municipal

Weather History for KCAR - September, 2012

Change the Weather History Date:

Friday, September 28, 2012

  Actual Average Record
Temperature  
Mean Temperature 45 °F 50 °F  
Max Temperature 58 °F 60 °F 84 °F (2014)
Min Temperature 31 °F 40 °F 25 °F (1965)
Degree Days  
Heating Degree Days 20 15  
Month to date heating degree days 226 281  
Since 1 July heating degree days 262 435  
Cooling Degree Days 0 0  
Month to date cooling degree days 8 10  
Year to date cooling degree days 279 179  
Moisture  
Dew Point 35 °F    
Average Humidity 72    
Maximum Humidity 96    
Minimum Humidity 47    
Precipitation  
Precipitation 0.00 in 0.12 in 1.91 in (2008)
Month to date precipitation 2.13 3.09  
Year to date precipitation 28.99 27.83  
Snow  
Snow 0.00 in 0.00 in 0.00 in (2002)
Month to date snowfall 0.0 0.1  
Since 1 July snowfall 0.0 0.1  
Since 1 September snowfall 0.0 0.1  
Snow Depth 0.00 in    
Sea Level Pressure  
Sea Level Pressure 30.23 in    
Wind  
Wind Speed 3 mph (SSE)    
Max Wind Speed 12 mph    
Max Gust Speed 14 mph    
Visibility 8 miles    
Events      
T = Trace of Precipitation, MM = Missing Value Source: NWS Daily Summary

Daily Weather History Graph

Daily Weather History Graph

Search for Another Location

Airport or City:

Trip Planner

Search our weather history database for the weather conditions in past years. The results will help you decide how hot, cold, wet, or windy it might be!

Date:

Astronomy

Sep. 28, 2012 Rise Set
Actual Time 6:27 AM EDT 6:16 PM EDT
Civil Twilight 5:57 AM EDT 6:47 PM EDT
Nautical Twilight 5:21 AM EDT 7:22 PM EDT
Astronomical Twilight 4:45 AM EDT 7:58 PM EDT
Moon 5:18 PM EDT (9/28) 4:51 AM EDT (9/28)
Length of Visible Light 12h 49m
Length of Day
11h 49m
Waxing Gibbous, 98% of the Moon is Illuminated
Sep 28
Waxing Gibbous
Sep 29
Full
Oct 8
Last Quarter
Oct 15
New
Oct 21
First Quarter

Hourly Weather History & Observations

Time (EDT) Temp. Windchill Dew Point Humidity Pressure Visibility Wind Dir Wind Speed Gust Speed Precip Events Conditions
12:54 AM 36.0 °F - 33.1 °F 89% 30.25 in 10.0 mi Calm Calm - N/A   Clear
1:54 AM 37.0 °F 32.4 °F 33.1 °F 86% 30.26 in 10.0 mi WSW 5.8 mph - N/A   Clear
2:54 AM 35.1 °F - 33.1 °F 92% 30.25 in 10.0 mi Calm Calm - N/A   Clear
3:54 AM 35.1 °F 32.2 °F 33.1 °F 92% 30.25 in 10.0 mi West 3.5 mph - N/A   Clear
4:21 AM 33.8 °F - 32.0 °F 93% 30.23 in 2.0 mi Calm Calm - N/A   Scattered Clouds
4:23 AM 33.8 °F - 32.0 °F 93% 30.23 in 1.2 mi Calm Calm - N/A   Scattered Clouds
4:26 AM 33.8 °F - 32.0 °F 93% 30.24 in 0.8 mi Calm Calm - N/A   Mist
4:43 AM 33.8 °F - 32.0 °F 93% 30.23 in 1.2 mi Calm Calm - N/A   Scattered Clouds
4:46 AM 33.8 °F - 32.0 °F 93% 30.24 in 2.0 mi Calm Calm - N/A   Scattered Clouds
4:54 AM 33.1 °F - 32.0 °F 96% 30.27 in 3.0 mi Calm Calm - N/A   Partly Cloudy
5:31 AM 32.0 °F - 30.2 °F 93% 30.25 in 1.8 mi Calm Calm - N/A   Scattered Clouds
5:34 AM 32.0 °F - 30.2 °F 93% 30.25 in 1.0 mi Calm Calm - N/A   Mist
5:45 AM 32.0 °F - 30.2 °F 93% 30.25 in 1.8 mi Calm Calm - N/A   Scattered Clouds
5:47 AM 32.0 °F - 30.2 °F 93% 30.25 in 3.0 mi Calm Calm - N/A   Scattered Clouds
5:54 AM 33.1 °F - 30.9 °F 92% 30.28 in 9.0 mi Calm Calm - N/A   Scattered Clouds
6:54 AM 32.0 °F - 30.9 °F 96% 30.28 in 10.0 mi Calm Calm - N/A   Clear
7:54 AM 35.1 °F - 33.1 °F 92% 30.29 in 10.0 mi Calm Calm - N/A   Clear
8:54 AM 41.0 °F 39.0 °F 36.0 °F 82% 30.29 in 10.0 mi South 3.5 mph - N/A   Clear
9:54 AM 45.0 °F - 37.0 °F 74% 30.28 in 10.0 mi Calm Calm - N/A   Clear
10:54 AM 50.0 °F - 37.9 °F 63% 30.26 in 10.0 mi East 3.5 mph - N/A   Clear
11:54 AM 52.0 °F - 37.0 °F 57% 30.25 in 10.0 mi Variable 3.5 mph - N/A   Clear
12:54 PM 54.0 °F - 36.0 °F 51% 30.22 in 10.0 mi Calm Calm - N/A   Clear
1:54 PM 55.9 °F - 37.9 °F 51% 30.20 in 10.0 mi Variable 4.6 mph - N/A   Clear
3:54 PM 57.0 °F - 37.9 °F 49% 30.17 in 10.0 mi SSE 6.9 mph - N/A   Clear
4:54 PM 55.9 °F - 39.0 °F 53% 30.17 in 10.0 mi SSE 6.9 mph - N/A   Clear
5:54 PM 53.1 °F - 39.9 °F 61% 30.17 in 10.0 mi SSE 5.8 mph - N/A   Clear
6:54 PM 51.1 °F - 39.0 °F 63% 30.17 in 10.0 mi SE 5.8 mph - N/A   Clear
7:54 PM 48.9 °F - 39.0 °F 69% 30.17 in 10.0 mi ESE 5.8 mph - N/A   Clear
8:54 PM 46.0 °F - 39.0 °F 76% 30.17 in 10.0 mi Calm Calm - N/A   Clear
9:54 PM 45.0 °F - 39.0 °F 80% 30.17 in 10.0 mi Calm Calm - N/A   Mostly Cloudy
10:54 PM 46.0 °F - 39.9 °F 79% 30.16 in 10.0 mi Calm Calm - N/A   Overcast
11:54 PM 45.0 °F - 39.9 °F 82% 30.16 in 10.0 mi Calm Calm - N/A   Overcast